Back to catalog

SIMSAT 2

AliveAmateur RadioPO
NORAD 26366·PAYLOAD·🇷🇺 Russia

Launched May 16, 2000 from Plesetsk Cosmodrome

Loading…

Next Passes (next 24 hours)

TLE

FreshSource: Space-Track

Epoch: Sep 14, 2026, 11:26 UTC

1 26366U 00026B   26257.47672833  .00001775  00000-0  60077-4 0  9997
2 26366  86.3396  83.5727 0003683 299.6794  60.4087 15.29829778456860

Track SIMSAT 2 in real time with AllMySat

Download on the App Store